TimeCET,TemperatureF,Dew PointF,Humidity,Sea Level PressureIn,VisibilityMPH,Wind Direction,Wind SpeedMPH,Gust SpeedMPH,PrecipitationIn,Events,Conditions,WindDirDegrees,DateUTC
12:55 AM,51.8,46.4,82,30.04,-9999.0,SE,5.8,-,N/A,,Clear,140,2012-12-03 23:55:00
1:00 AM,53,47,73,30.06,12,SE,5.8,,,,,140,2012-12-04 00:00:00
1:55 AM,55.4,48.2,77,30.04,-9999.0,NW,5.8,-,N/A,,Clear,320,2012-12-04 00:55:00
2:55 AM,55.4,44.6,67,30.04,-9999.0,NNW,5.8,-,N/A,,Clear,340,2012-12-04 01:55:00
3:55 AM,57.2,48.2,72,30.01,-9999.0,NNE,3.5,-,N/A,,Clear,30,2012-12-04 02:55:00
4:55 AM,55.4,44.6,67,30.01,-9999.0,NE,4.6,-,N/A,,Clear,40,2012-12-04 03:55:00
5:55 AM,55.4,44.6,67,29.98,-9999.0,SE,6.9,-,N/A,,Clear,130,2012-12-04 04:55:00
6:55 AM,55.4,46.4,72,29.95,6.2,WSW,26.5,-,N/A,,Scattered Clouds,250,2012-12-04 05:55:00
7:00 AM,56,47,63,29.97,12,WSW,26.5,,,,Partly Cloudy,250,2012-12-04 06:00:00
7:55 AM,57.2,46.4,67,29.95,6.2,West,8.1,-,N/A,,Mostly Cloudy,260,2012-12-04 06:55:00
8:55 AM,59.0,46.4,63,29.92,6.2,SSE,3.5,-,N/A,,Mostly Cloudy,160,2012-12-04 07:55:00
9:55 AM,60.8,48.2,63,29.92,6.2,SSW,3.5,-,N/A,,Mostly Cloudy,200,2012-12-04 08:55:00
10:55 AM,60.8,46.4,59,29.89,6.2,West,11.5,-,N/A,,Mostly Cloudy,280,2012-12-04 09:55:00
11:55 AM,60.8,42.8,52,29.86,6.2,West,15.0,28.8,N/A,,Scattered Clouds,270,2012-12-04 10:55:00
12:55 PM,59.0,42.8,55,29.83,6.2,West,20.7,32.2,N/A,,Scattered Clouds,280,2012-12-04 11:55:00
1:00 PM,60,43,41,29.83,12,West,20.7,,,,Partly Cloudy,280,2012-12-04 12:00:00
1:55 PM,59.0,42.8,55,29.80,6.2,West,20.7,32.2,N/A,,Scattered Clouds,280,2012-12-04 12:55:00
2:55 PM,59.0,48.2,67,29.80,6.2,WNW,16.1,-,N/A,,Partly Cloudy,290,2012-12-04 13:55:00
3:55 PM,55.4,42.8,63,29.77,6.2,WNW,21.9,-,N/A,,Scattered Clouds,290,2012-12-04 14:55:00
4:55 PM,53.6,46.4,77,29.80,6.2,NW,17.3,-,N/A,,Mostly Cloudy,320,2012-12-04 15:55:00
5:55 PM,53.6,41.0,62,29.77,6.2,WNW,17.3,34.5,N/A,,Mostly Cloudy,290,2012-12-04 16:55:00
6:55 PM,55.4,39.2,54,29.74,6.2,WNW,24.2,-,N/A,,Scattered Clouds,290,2012-12-04 17:55:00
7:00 PM,55,39,43,29.76,12,WNW,24.2,,,,Partly Cloudy,290,2012-12-04 18:00:00
7:55 PM,53.6,37.4,54,29.74,6.2,WNW,13.8,-,N/A,,Scattered Clouds,290,2012-12-04 18:55:00
8:55 PM,53.6,35.6,51,29.74,6.2,WNW,13.8,27.6,N/A,,Scattered Clouds,300,2012-12-04 19:55:00
9:55 PM,53.6,37.4,54,29.74,6.2,WNW,15.0,26.5,N/A,,Scattered Clouds,300,2012-12-04 20:55:00
10:55 PM,53.6,35.6,51,29.74,6.2,WNW,17.3,-,N/A,,Scattered Clouds,290,2012-12-04 21:55:00
11:55 PM,53.6,35.6,51,29.74,6.2,West,17.3,-,N/A,,Scattered Clouds,280,2012-12-04 22:55:00